Beaufort, NC

1:10 AM EST on December 06, 2019 (GMT -0500)
Smith

Weather History for KMRH - November, 2019

Change the Weather History Date:

Saturday, November 16, 2019

  Actual Average Record
Temperature  
Mean Temperature 52 °F -  
Max Temperature 54 °F 66 °F 78 °F (1971)
Min Temperature 51 °F 44 °F 26 °F (1967)
Degree Days  
Heating Degree Days 12    
Growing Degree Days 2 (Base 50)    
Moisture  
Dew Point 51 °F    
Average Humidity 93    
Maximum Humidity 100    
Minimum Humidity 86    
Precipitation  
Precipitation 0.61 in - - ()
Sea Level Pressure  
Sea Level Pressure 29.91 in    
Wind  
Wind Speed 25 mph (NNE)    
Max Wind Speed 33 mph    
Max Gust Speed 50 mph    
Visibility 6 miles    
Events Rain    
Averages and records for this station are not official NWS values.
T = Trace of Precipitation, MM = Missing Value Source: NWS Daily Summary

Daily Weather History Graph

Daily Weather History Graph

Search for Another Location

Airport or City:

Astronomy

Nov. 16, 2019 Rise Set
Actual Time 6:41 AM EST 5:01 PM EST
Civil Twilight 6:14 AM EST 5:27 PM EST
Nautical Twilight 5:43 AM EST 5:58 PM EST
Astronomical Twilight 5:13 AM EST 6:28 PM EST
Moon 8:35 PM EST (11/16) 10:28 AM EST (11/16)
Length of Visible Light 11h 13m
Length of Day
10h 19m
Waning Gibbous, 82% of the Moon is Illuminated
Nov 16
Waning Gibbous
Nov 19
Last Quarter
Nov 26
New
Dec 4
First Quarter
Dec 12
Full

Hourly Weather History & Observations

Time (EST) Temp. Dew Point Humidity Pressure Visibility Wind Dir Wind Speed Gust Speed Precip Events Conditions
12:24 AM 54.0 °F 54.0 °F 100% 29.92 in 5.0 mi NNE 18.4 mph 29.9 mph 0.01 in Rain Light Rain
12:58 AM 54.0 °F 53.1 °F 97% 29.91 in 4.0 mi North 23.0 mph 31.1 mph 0.01 in Rain Light Rain
2:58 AM 52.0 °F 51.1 °F 97% 29.92 in 5.0 mi NNE 21.9 mph 31.1 mph 0.00 in Rain Light Rain
3:58 AM 51.1 °F 50.0 °F 96% 29.91 in 10.0 mi NNE 20.7 mph 36.8 mph 0.01 in Rain Light Rain
4:58 AM 52.0 °F 51.1 °F 97% 29.92 in 10.0 mi NNE 25.3 mph 38.0 mph 0.00 in   Overcast
5:35 AM 53.1 °F 50.0 °F 89% 29.92 in 10.0 mi NNE 23.0 mph 33.4 mph N/A   Overcast
5:58 AM 52.0 °F 50.0 °F 93% 29.93 in 4.0 mi NNE 21.9 mph 33.4 mph 0.01 in Rain Light Rain
6:58 AM 53.1 °F 50.0 °F 89% 29.95 in 9.0 mi NNE 26.5 mph 38.0 mph 0.01 in Rain Light Rain
7:58 AM 53.1 °F 50.0 °F 89% 29.96 in 10.0 mi NNE 26.5 mph 42.6 mph 0.00 in   Overcast
8:58 AM 54.0 °F 51.1 °F 90% 29.97 in 10.0 mi NNE 26.5 mph 41.4 mph N/A   Overcast
9:58 AM 54.0 °F 51.1 °F 90% 29.98 in 10.0 mi NNE 27.6 mph 40.3 mph N/A   Overcast
10:58 AM 54.0 °F 52.0 °F 93% 29.96 in 4.0 mi NNE 27.6 mph 41.4 mph 0.00 in Rain Light Rain
11:23 AM 52.0 °F 51.1 °F 97% 29.96 in 3.0 mi North 26.5 mph 35.7 mph 0.00 in Rain Light Rain
11:58 AM 52.0 °F 50.0 °F 93% 29.94 in 2.5 mi NNE 27.6 mph 42.6 mph 0.01 in Rain Light Rain
12:06 PM 52.0 °F 50.0 °F 93% 29.93 in 4.0 mi NNE 29.9 mph 40.3 mph 0.00 in Rain Light Rain
12:58 PM 52.0 °F 51.1 °F 97% 29.91 in 9.0 mi NNE 25.3 mph 38.0 mph 0.00 in   Overcast
1:58 PM 53.1 °F 51.1 °F 93% 29.89 in 7.0 mi NNE 26.5 mph 41.4 mph 0.00 in Rain Light Rain
2:14 PM 54.0 °F 52.0 °F 93% 29.88 in 6.0 mi NNE 27.6 mph 44.9 mph 0.00 in Rain Light Rain
2:58 PM 54.0 °F 52.0 °F 93% 29.91 in 7.0 mi NNE 31.1 mph 41.4 mph 0.00 in Rain Light Rain
3:50 PM 54.0 °F 52.0 °F 93% 29.90 in 2.0 mi NNE 28.8 mph 42.6 mph 0.01 in Rain Light Rain
3:58 PM 54.0 °F 52.0 °F 93% 29.90 in 3.0 mi NNE 31.1 mph 42.6 mph 0.02 in Rain Light Rain
4:06 PM 54.0 °F 52.0 °F 93% 29.89 in 2.0 mi NNE 29.9 mph 42.6 mph 0.01 in Rain Light Rain
4:17 PM 54.0 °F 52.0 °F 93% 29.89 in 2.5 mi North 29.9 mph 49.5 mph 0.02 in Rain Light Rain
4:25 PM 54.0 °F 52.0 °F 93% 29.88 in 2.0 mi NNE 33.4 mph 43.7 mph 0.02 in Rain Light Rain
4:58 PM 54.0 °F 52.0 °F 93% 29.89 in 4.0 mi NNE 31.1 mph 44.9 mph 0.04 in Rain Light Rain
5:27 PM 53.1 °F 52.0 °F 96% 29.89 in 4.0 mi NNE 31.1 mph 41.4 mph 0.02 in Rain Light Rain
5:58 PM 53.1 °F 51.1 °F 93% 29.89 in 8.0 mi NNE 32.2 mph 46.0 mph 0.04 in Rain Light Rain
6:58 PM 53.1 °F 51.1 °F 93% 29.88 in 8.0 mi NNE 29.9 mph 46.0 mph 0.00 in   Overcast
7:58 PM 54.0 °F 50.0 °F 86% 29.89 in 10.0 mi NNE 28.8 mph 43.7 mph 0.00 in Rain Light Rain
8:58 PM 53.1 °F 51.1 °F 93% 29.90 in 5.0 mi NNE 26.5 mph 43.7 mph 0.05 in Rain Rain
9:58 PM 53.1 °F 51.1 °F 93% 29.90 in 8.0 mi NNE 26.5 mph 48.3 mph 0.13 in Rain Light Rain
10:58 PM 53.1 °F 51.1 °F 93% 29.89 in 6.0 mi NNE 28.8 mph 41.4 mph 0.13 in Rain Rain
11:58 PM 53.1 °F 51.1 °F 93% 29.87 in 4.0 mi NNE 31.1 mph 47.2 mph 0.15 in Rain Heavy Rain